カタログに戻る

COSMOS 249 DEB

運用中LEO
NORAD 15535·DEBRIS·🇷🇺 Russia

打ち上げ Oct 20, 1968 から Baikonur Cosmodrome

Loading…

次のパス (今後24時間)

TLE

最新Source: Space-Track

元期: Sep 13, 2026, 08:36 UTC

1 15535U 68091CY  26256.35902216  .00006665  00000-0  84212-3 0  9995
2 15535  62.3998  22.1751 0305460 224.6818 132.9276 14.54967163969656

AllMySatでCOSMOS 249 DEBをリアルタイム追跡

Download on the App Store